WetterOnline ( http://www.wetteronline.de )

Wetter aktuell Ingolstadt

Aktuelles Wetter: Gelbelsee (539m)

6-stündlich | Neueste Meldungen
Ortszeit Temperatur Wetter
Fr, 19.10. 20:00 11.8° C wolkig
Fr, 19.10. 14:00 15.7° C leicht bewölkt
Fr, 19.10. 8:00 8.8° C fast wolkenlos
Fr, 19.10. 2:00 9.9° C wolkenlos
Do, 18.10. 20:00 14.2° C wolkig
Do, 18.10. 14:00 17.9° C leicht bewölkt
Do, 18.10. 8:00 8.6° C leicht bewölkt
Do, 18.10. 2:00 10.5° C fast wolkenlos
Ortszeit Temperatur Wetter
Sa, 20.10. 1:00 8.7° C fast wolkenlos
Sa, 20.10. 0:30 8.8° C fast wolkenlos
Sa, 20.10. 0:20 8.8° C fast wolkenlos
Sa, 20.10. 0:10 8.7° C leicht bewölkt
Sa, 20.10. 0:00 8.9° C leicht bewölkt
Fr, 19.10. 23:50 8.9° C leicht bewölkt
Fr, 19.10. 23:30 9.3° C leicht bewölkt
Fr, 19.10. 23:00 9.6° C wolkig
Fr, 19.10. 22:30 9.7° C wolkig
Fr, 19.10. 22:00 9.9° C wolkig
Fr, 19.10. 21:30 10.6° C wolkig
Ortszeit Relative Feuchte Sichtweite
Fr, 19.10. 20:00 81% 9 km
Fr, 19.10. 14:00 64% 10 km
Fr, 19.10. 8:00 93% -
Fr, 19.10. 2:00 88% -
Do, 18.10. 20:00 71% -
Do, 18.10. 14:00 56% -
Do, 18.10. 8:00 93% -
Do, 18.10. 2:00 87% -
Ortszeit Relative Feuchte Sichtweite
Sa, 20.10. 1:00 96% 2.7 km
Sa, 20.10. 0:30 96% 2.8 km
Sa, 20.10. 0:20 96% -
Sa, 20.10. 0:10 95% -
Sa, 20.10. 0:00 95% 2.9 km
Fr, 19.10. 23:50 95% -
Fr, 19.10. 23:30 93% 3.4 km
Fr, 19.10. 23:00 91% 4.1 km
Fr, 19.10. 22:30 90% 5.0 km
Fr, 19.10. 22:00 90% 5.0 km
Fr, 19.10. 21:30 87% 6 km
Ortszeit Niederschlagsmenge Niederschlagsart
Fr, 19.10. 20:00 0.0 l/m2 in 12 Std. -
Fr, 19.10. 14:00 0.0 l/m2 in 6 Std. -
Fr, 19.10. 8:00 0.0 l/m2 in 12 Std. -
Fr, 19.10. 2:00 0.0 l/m2 in 6 Std. -
Do, 18.10. 20:00 0.0 l/m2 in 12 Std. -
Do, 18.10. 14:00 0.0 l/m2 in 6 Std. -
Do, 18.10. 8:00 0.0 l/m2 in 12 Std. -
Do, 18.10. 2:00 0.0 l/m2 in 6 Std. -
Ortszeit Niederschlagsmenge Niederschlagsart
Sa, 20.10. 1:00 keine Meldung -
Sa, 20.10. 0:30 0.0 l/m2 in 1 Std. -
Sa, 20.10. 0:20 keine Meldung -
Sa, 20.10. 0:10 keine Meldung -
Sa, 20.10. 0:00 0.0 l/m2 in 1 Std. -
Fr, 19.10. 23:50 keine Meldung -
Fr, 19.10. 23:30 0.0 l/m2 in 1 Std. -
Fr, 19.10. 23:00 0.0 l/m2 in 1 Std. -
Fr, 19.10. 22:30 0.0 l/m2 in 1 Std. -
Fr, 19.10. 22:00 0.0 l/m2 in 1 Std. -
Fr, 19.10. 21:30 0.0 l/m2 in 1 Std. -
Ortszeit Stärke Spitze Richtung
km/h Bft. km/h Grad Sektor
Fr, 19.10. 20:00 6 1 17 20° N
Fr, 19.10. 14:00 7 2 18 40° NO
Fr, 19.10. 8:00 9 2 19 50° NO
Fr, 19.10. 2:00 11 2 18 30° NO
Do, 18.10. 20:00 6 1 19 20° N
Do, 18.10. 14:00 11 2 18 10° N
Do, 18.10. 8:00 4 1 11 10° N
Do, 18.10. 2:00 4 1 7 350° N
Ortszeit Stärke Spitze Richtung
km/h Bft. km/h Grad Sektor
Sa, 20.10. 1:00 7 2 7 10° N
Sa, 20.10. 0:30 7 2 7 360° N
Sa, 20.10. 0:20 7 2 - 360° N
Sa, 20.10. 0:10 7 2 - 10° N
Sa, 20.10. 0:00 6 1 7 10° N
Fr, 19.10. 23:50 6 1 - 10° N
Fr, 19.10. 23:30 6 1 7 20° N
Fr, 19.10. 23:00 6 1 9 20° N
Fr, 19.10. 22:30 6 1 9 10° N
Fr, 19.10. 22:00 6 1 11 20° N
Fr, 19.10. 21:30 7 2 11 50° NO
Ortszeit Untergrenze Bedeckung Gattung
total tief tief mittel hoch
Fr, 19.10. 20:00 9000 m 8/8 0/8 - - -
Fr, 19.10. 14:00 960 m 2/8 2/8 - - -
Fr, 19.10. 8:00 1800 m 1/8 1/8 - - -
Fr, 19.10. 2:00 - 0/8 0/8 - - -
Do, 18.10. 20:00 8100 m 7/8 0/8 - - -
Do, 18.10. 14:00 10500 m 8/8 0/8 - - -
Do, 18.10. 8:00 9000 m 5/8 0/8 - - -
Do, 18.10. 2:00 2400 m 1/8 1/8 - - -
Ortszeit Bedeckungsgrad in Achtel und Wolkenuntergrenze
Sa, 20.10. 1:00 1(1500m)
Sa, 20.10. 0:30 2(9000m)
Sa, 20.10. 0:20 2(9000m)
Sa, 20.10. 0:10 1(1500m) 4(9000m)
Sa, 20.10. 0:00 1(1500m)
Fr, 19.10. 23:50 1(1500m) 2(9000m)
Fr, 19.10. 23:30 5(9000m)
Fr, 19.10. 23:00 3(7500m) 7(9000m)
Fr, 19.10. 22:30 8(7500m) 8(8700m) 8(9000m)
Fr, 19.10. 22:00 6(7800m) 8(9000m) 8(9000m)
Fr, 19.10. 21:30 5(8400m) 8(9000m) 8(9000m)
Ortszeit Luftdruck NN (hPa) Tendenz (hPa in 3 Std.)
Fr, 19.10. 20:00 1023 + 1,0
Fr, 19.10. 14:00 1022 - 0,3
Fr, 19.10. 8:00 1023 + 0,6
Fr, 19.10. 2:00 1022 - 0,2
Do, 18.10. 20:00 1020 + 1,2
Do, 18.10. 14:00 1018 - 0,7
Do, 18.10. 8:00 1020 + 0,5
Do, 18.10. 2:00 1020 - 0,3
Ortszeit Luftdruck NN (hPa) Tendenz (hPa in 3 Std.)
Sa, 20.10. 1:00 1026 + 0,6
Sa, 20.10. 0:30 1026 + 0,9
Sa, 20.10. 0:20 1026 keine Meldung
Sa, 20.10. 0:10 1026 keine Meldung
Sa, 20.10. 0:00 1025 + 0,9
Fr, 19.10. 23:50 1025 keine Meldung
Fr, 19.10. 23:30 1025 + 0,8
Fr, 19.10. 23:00 1025 + 1,0
Fr, 19.10. 22:30 1025 + 1,0
Fr, 19.10. 22:00 1025 + 1,2
Fr, 19.10. 21:30 1024 + 1,2
Ortszeit Schneehöhe (cm)
Fr, 19.10. 20:00 0
Fr, 19.10. 14:00 0
Fr, 19.10. 8:00 0
Fr, 19.10. 2:00 0
Do, 18.10. 20:00 0
Do, 18.10. 14:00 0
Do, 18.10. 8:00 0
Do, 18.10. 2:00 0
Ortszeit Schneehöhe (cm)
Sa, 20.10. 1:00 -
Sa, 20.10. 0:30 0
Sa, 20.10. 0:20 0
Sa, 20.10. 0:10 0
Sa, 20.10. 0:00 0
Fr, 19.10. 23:50 0
Fr, 19.10. 23:30 0
Fr, 19.10. 23:00 0
Fr, 19.10. 22:30 0
Fr, 19.10. 22:00 0
Fr, 19.10. 21:30 0
Link zu dieser Seite / Seite empfehlen

Das Wetter in ...